TimeMDT,TemperatureF,Dew PointF,Humidity,Sea Level PressureIn,VisibilityMPH,Wind Direction,Wind SpeedMPH,Gust SpeedMPH,PrecipitationIn,Events,Conditions,WindDirDegrees,DateUTC
12:53 AM,30.0,21.0,69,30.24,10.0,North,9.2,-,N/A,,Clear,10,2013-03-10 07:53:00
1:53 AM,30.0,19.9,66,30.25,10.0,North,10.4,-,N/A,,Clear,10,2013-03-10 08:53:00
3:53 AM,28.9,19.0,67,30.26,10.0,North,9.2,-,N/A,,Clear,360,2013-03-10 09:53:00
4:53 AM,28.0,18.0,66,30.30,10.0,North,9.2,-,N/A,,Clear,360,2013-03-10 10:53:00
5:53 AM,27.0,17.1,66,30.31,10.0,NNE,9.2,-,N/A,,Clear,20,2013-03-10 11:53:00
6:53 AM,26.1,16.0,66,30.32,10.0,NNE,10.4,-,N/A,,Clear,20,2013-03-10 12:53:00
7:53 AM,25.0,16.0,69,30.33,10.0,NE,8.1,-,N/A,,Clear,40,2013-03-10 13:53:00
8:53 AM,30.0,18.0,61,30.33,10.0,NE,6.9,-,N/A,,Clear,40,2013-03-10 14:53:00
9:53 AM,35.1,15.1,44,30.33,10.0,Calm,Calm,-,N/A,,Clear,0,2013-03-10 15:53:00
10:53 AM,37.0,18.0,46,30.34,10.0,Calm,Calm,-,N/A,,Clear,0,2013-03-10 16:53:00
11:53 AM,39.0,19.9,46,30.32,10.0,Variable,4.6,-,N/A,,Clear,0,2013-03-10 17:53:00
12:53 PM,41.0,21.0,45,30.31,10.0,Variable,3.5,-,N/A,,Clear,0,2013-03-10 18:53:00
1:53 PM,44.1,24.1,45,30.29,10.0,Variable,3.5,-,N/A,,Clear,0,2013-03-10 19:53:00
2:53 PM,45.0,21.9,40,30.24,10.0,SSW,3.5,-,N/A,,Clear,200,2013-03-10 20:53:00
3:53 PM,46.9,24.1,41,30.23,10.0,Variable,4.6,-,N/A,,Clear,0,2013-03-10 21:53:00
4:53 PM,48.9,25.0,39,30.23,10.0,WSW,4.6,-,N/A,,Clear,240,2013-03-10 22:53:00
5:53 PM,50.0,17.1,27,30.21,10.0,NNW,16.1,20.7,N/A,,Clear,330,2013-03-10 23:53:00
6:53 PM,46.9,18.0,32,30.24,10.0,NW,9.2,23.0,N/A,,Clear,310,2013-03-11 00:53:00
7:53 PM,42.1,18.0,38,30.28,10.0,West,11.5,-,N/A,,Clear,260,2013-03-11 01:53:00
8:53 PM,41.0,17.1,38,30.28,10.0,NW,13.8,23.0,N/A,,Clear,320,2013-03-11 02:53:00
9:53 PM,39.0,18.0,43,30.28,10.0,NNW,6.9,-,N/A,,Clear,330,2013-03-11 03:53:00
10:53 PM,39.0,19.0,45,30.28,10.0,Variable,4.6,-,N/A,,Clear,0,2013-03-11 04:53:00
11:53 PM,36.0,21.9,57,30.28,10.0,North,6.9,-,N/A,,Clear,10,2013-03-11 05:53:00
12:53 AM,36.0,21.0,55,30.26,10.0,North,10.4,-,N/A,,Clear,10,2013-03-11 06:53:00